New River MCAS, NC

2:40 AM EDT on March 24, 2017 (GMT -0400)
New River Marine Corps Air Station

Weather History for KNCA - March, 2012

Change the Weather History Date:

Sunday, March 25, 2012

  Actual Average Record
Temperature  
Mean Temperature 61 °F -  
Max Temperature 72 °F 66 °F 84 °F (2016)
Min Temperature 51 °F 44 °F 34 °F (2006)
Degree Days  
Heating Degree Days 4    
Growing Degree Days 11 (Base 50)    
Moisture  
Dew Point 57 °F    
Average Humidity 87    
Maximum Humidity 100    
Minimum Humidity 57    
Precipitation  
Precipitation 3.95 in - - ()
Sea Level Pressure  
Sea Level Pressure 29.72 in    
Wind  
Wind Speed 6 mph (WNW)    
Max Wind Speed 20 mph    
Max Gust Speed 38 mph    
Visibility 8 miles    
Events Fog , Rain , Thunderstorm    
Averages and records for this station are not official NWS values.
T = Trace of Precipitation, MM = Missing Value Source: NWS Daily Summary

Daily Weather History Graph

Daily Weather History Graph

Search for Another Location

Airport or City:

Trip Planner

Search our weather history database for the weather conditions in past years. The results will help you decide how hot, cold, wet, or windy it might be!

Date:

Astronomy

Mar. 25, 2012 Rise Set
Actual Time 7:05 AM EDT 7:25 PM EDT
Civil Twilight 6:40 AM EDT 7:51 PM EDT
Nautical Twilight 6:11 AM EDT 8:20 PM EDT
Astronomical Twilight 5:41 AM EDT 8:50 PM EDT
Moon 8:25 AM EDT (3/25) 10:29 PM EDT (3/25)
Length of Visible Light 13h 10m
Length of Day
12h 19m
Waxing Crescent, 8% of the Moon is Illuminated
Mar 25
Waxing Crescent
Mar 30
First Quarter
Apr 6
Full
Apr 13
Last Quarter
Apr 21
New

Hourly Weather History & Observations

Time (EDT) Temp. Dew Point Humidity Pressure Visibility Wind Dir Wind Speed Gust Speed Precip Events Conditions
12:56 AM 63.0 °F 61.0 °F 93% 29.79 in 10.0 mi SSE 4.6 mph - 0.00 in Rain , Thunderstorm Light Thunderstorms and Rain
1:28 AM 64.4 °F 62.6 °F 94% 29.76 in 10.0 mi SSE 3.5 mph - 0.03 in   Mostly Cloudy
1:49 AM 64.4 °F 62.6 °F 94% 29.76 in 10.0 mi South 3.5 mph - 0.03 in Thunderstorm Thunderstorm
1:56 AM 64.0 °F 62.1 °F 93% 29.77 in 10.0 mi SW 3.5 mph - 0.03 in Rain , Thunderstorm Light Thunderstorms and Rain
2:08 AM 64.4 °F 62.6 °F 94% 29.75 in 10.0 mi South 4.6 mph - 0.00 in Thunderstorm Thunderstorm
2:21 AM 64.4 °F 60.8 °F 88% 29.78 in 1.5 mi WSW 19.6 mph 25.3 mph 0.20 in Rain , Thunderstorm Heavy Thunderstorms and Rain
2:26 AM 62.6 °F 60.8 °F 94% 29.78 in 1.0 mi WSW 15.0 mph 25.3 mph 0.30 in Rain , Thunderstorm Heavy Thunderstorms and Rain
2:30 AM 62.6 °F 60.8 °F 94% 29.78 in 1.2 mi West 12.7 mph 25.3 mph 0.32 in Rain , Thunderstorm Heavy Thunderstorms and Rain
2:34 AM 62.6 °F 60.8 °F 94% 29.77 in 3.0 mi West 10.4 mph 20.7 mph 0.33 in Rain , Thunderstorm Thunderstorms and Rain
2:47 AM 62.6 °F 60.8 °F 94% 29.76 in 10.0 mi WNW 8.1 mph - 0.33 in Rain Light Rain
2:56 AM 62.1 °F 61.0 °F 96% 29.76 in 9.0 mi West 5.8 mph - 0.33 in Rain Light Rain
3:56 AM 61.0 °F 60.1 °F 97% 29.75 in 9.0 mi Calm Calm - 0.00 in   Mostly Cloudy
4:03 AM 60.8 °F 60.8 °F 100% 29.73 in 10.0 mi Calm Calm - N/A   Mostly Cloudy
4:28 AM 60.8 °F 59.0 °F 94% 29.72 in 1.8 mi Calm Calm - N/A   Mostly Cloudy
4:34 AM 60.8 °F 60.8 °F 100% 29.72 in 2.0 mi Calm Calm - N/A   Mostly Cloudy
4:42 AM 60.8 °F 60.8 °F 100% 29.72 in 7.0 mi NNE 3.5 mph - N/A   Mostly Cloudy
4:56 AM 62.1 °F 60.1 °F 93% 29.72 in 10.0 mi NE 8.1 mph - N/A   Overcast
5:56 AM 62.1 °F 60.1 °F 93% 29.72 in 10.0 mi East 3.5 mph - 0.01 in   Overcast
6:56 AM 61.0 °F 60.1 °F 97% 29.72 in 10.0 mi West 3.5 mph - N/A   Overcast
7:37 AM 60.8 °F 60.8 °F 100% 29.71 in 9.0 mi West 3.5 mph - N/A   Overcast
7:56 AM 61.0 °F 60.1 °F 97% 29.73 in 8.0 mi West 4.6 mph - N/A   Overcast
8:56 AM 63.0 °F 61.0 °F 93% 29.73 in 10.0 mi West 5.8 mph - N/A   Overcast
9:10 AM 62.6 °F 60.8 °F 94% 29.72 in 10.0 mi WNW 5.8 mph - N/A   Overcast
9:56 AM 64.0 °F 60.1 °F 87% 29.73 in 10.0 mi West 6.9 mph - N/A   Mostly Cloudy
10:54 AM 66.2 °F 60.8 °F 83% 29.71 in 10.0 mi WNW 9.2 mph - N/A   Scattered Clouds
10:56 AM 66.0 °F 60.1 °F 81% 29.72 in 10.0 mi WNW 8.1 mph - N/A   Scattered Clouds
11:56 AM 70.0 °F 60.1 °F 71% 29.72 in 10.0 mi WNW 5.8 mph - N/A   Scattered Clouds
12:56 PM 70.0 °F 57.0 °F 63% 29.70 in 10.0 mi Variable 6.9 mph - N/A   Mostly Cloudy
1:56 PM 71.1 °F 57.0 °F 61% 29.67 in 10.0 mi NNW 10.4 mph - N/A   Mostly Cloudy
2:12 PM 71.6 °F 55.4 °F 57% 29.66 in 10.0 mi NNW 8.1 mph - N/A Thunderstorm Thunderstorm
2:17 PM 69.8 °F 55.4 °F 60% 29.66 in 1.8 mi Calm Calm - N/A Thunderstorm Unknown
2:37 PM 60.8 °F 55.4 °F 82% 29.68 in 0.5 mi SE 12.7 mph 28.8 mph 0.71 in Rain , Thunderstorm Heavy Thunderstorms and Rain
2:42 PM 60.8 °F 57.2 °F 88% 29.68 in 0.2 mi NNW 19.6 mph 32.2 mph 1.09 in Fog , Rain , Thunderstorm Heavy Thunderstorms and Rain
2:54 PM 53.6 °F 48.2 °F 82% 29.69 in 0.2 mi NNW 13.8 mph 38.0 mph 2.36 in Rain , Thunderstorm Heavy Thunderstorms and Rain
2:56 PM 53.1 °F 48.0 °F 83% 29.70 in 0.2 mi WNW 13.8 mph 38.0 mph 2.55 in Rain , Thunderstorm Heavy Thunderstorms and Rain
2:58 PM 51.8 °F 48.2 °F 88% 29.70 in 0.2 mi NW 15.0 mph 23.0 mph 0.07 in Fog , Rain , Thunderstorm Heavy Thunderstorms and Rain
3:21 PM 53.6 °F 50.0 °F 88% 29.69 in 1.0 mi NW 4.6 mph - 0.97 in Rain , Thunderstorm Heavy Thunderstorms and Rain
3:24 PM 53.6 °F 50.0 °F 88% 29.68 in 1.2 mi North 5.8 mph - 0.98 in Rain , Thunderstorm Heavy Thunderstorms and Rain
3:29 PM 55.4 °F 48.2 °F 77% 29.68 in 3.0 mi North 3.5 mph - 1.00 in Rain , Thunderstorm Thunderstorms and Rain
3:56 PM 55.0 °F 52.0 °F 89% 29.69 in 9.0 mi Calm Calm - 1.02 in Rain Light Rain
4:45 PM 59.0 °F 55.4 °F 88% 29.67 in 10.0 mi SSE 4.6 mph - 0.01 in Thunderstorm Thunderstorm
4:56 PM 61.0 °F 55.9 °F 83% 29.66 in 10.0 mi Variable 4.6 mph - 0.01 in Thunderstorm Thunderstorm
5:24 PM 62.6 °F 57.2 °F 82% 29.65 in 10.0 mi Variable 3.5 mph - N/A   Clear
5:45 PM 60.8 °F 57.2 °F 88% 29.67 in 10.0 mi North 11.5 mph - N/A Thunderstorm Thunderstorm
5:56 PM 62.1 °F 57.9 °F 86% 29.68 in 10.0 mi North 8.1 mph - N/A Thunderstorm Thunderstorm
6:09 PM 62.6 °F 57.2 °F 82% 29.67 in 10.0 mi North 6.9 mph - N/A   Clear
6:33 PM 62.6 °F 57.2 °F 82% 29.68 in 10.0 mi NW 6.9 mph - N/A Thunderstorm Thunderstorm
6:51 PM 60.8 °F 53.6 °F 77% 29.68 in 10.0 mi NW 5.8 mph - N/A   Clear
6:56 PM 61.0 °F 55.0 °F 81% 29.68 in 10.0 mi NW 4.6 mph - N/A   Clear
7:16 PM 60.8 °F 55.4 °F 82% 29.67 in 10.0 mi Calm Calm - N/A Thunderstorm Thunderstorm
7:56 PM 59.0 °F 55.0 °F 87% 29.70 in 10.0 mi North 3.5 mph - N/A   Clear
8:41 PM 57.2 °F 53.6 °F 88% 29.71 in 10.0 mi West 5.8 mph - N/A Thunderstorm Thunderstorm
8:56 PM 57.9 °F 55.0 °F 90% 29.73 in 10.0 mi West 9.2 mph - N/A Thunderstorm Thunderstorm
9:20 PM 59.0 °F 53.6 °F 82% 29.74 in 10.0 mi WNW 13.8 mph - N/A Thunderstorm Thunderstorm
9:39 PM 57.2 °F 53.6 °F 88% 29.73 in 10.0 mi WNW 8.1 mph - N/A Thunderstorm Thunderstorm
9:56 PM 55.9 °F 54.0 °F 93% 29.75 in 10.0 mi NW 10.4 mph - N/A Thunderstorm Thunderstorm
10:09 PM 55.4 °F 53.6 °F 94% 29.74 in 10.0 mi WNW 10.4 mph - N/A   Mostly Cloudy
10:56 PM 55.9 °F 53.1 °F 90% 29.74 in 10.0 mi WNW 10.4 mph - N/A   Clear
11:56 PM 57.0 °F 53.1 °F 87% 29.74 in 10.0 mi NW 9.2 mph - 0.00 in Rain Light Rain